Year,Month,Day,Hour,Minute,Value (Times are PST for temperature in C)
2017,08,22,00,00,19.40
2017,08,22,00,01,19.50
2017,08,22,00,02,19.50
2017,08,22,00,03,19.50
2017,08,22,00,04,19.60
2017,08,22,00,05,19.60
2017,08,22,00,06,19.60
2017,08,22,00,07,19.60
2017,08,22,00,08,19.70
2017,08,22,00,09,19.70
2017,08,22,00,10,19.70
2017,08,22,00,11,19.70
2017,08,22,00,12,19.70
2017,08,22,00,13,19.70
2017,08,22,00,14,19.80
2017,08,22,00,15,19.80
2017,08,22,00,16,19.80
2017,08,22,00,17,19.80
2017,08,22,00,18,19.80
2017,08,22,00,19,19.80
2017,08,22,00,20,19.80
2017,08,22,00,21,19.80
2017,08,22,00,22,19.80
2017,08,22,00,23,19.80
2017,08,22,00,24,19.70
2017,08,22,00,25,19.70
2017,08,22,00,26,19.70
2017,08,22,00,27,19.60
2017,08,22,00,28,19.60
2017,08,22,00,29,19.60
2017,08,22,00,30,19.50
2017,08,22,00,31,19.50
2017,08,22,00,32,19.50
2017,08,22,00,33,19.40
2017,08,22,00,34,19.30
2017,08,22,00,35,19.30
2017,08,22,00,36,19.10
2017,08,22,00,37,19.10
2017,08,22,00,38,19.00
2017,08,22,00,39,18.90
2017,08,22,00,40,18.90
2017,08,22,00,41,18.90
2017,08,22,00,42,18.80
2017,08,22,00,43,18.70
2017,08,22,00,44,18.70
2017,08,22,00,45,18.60
2017,08,22,00,46,18.60
2017,08,22,00,47,18.50
2017,08,22,00,48,18.40
2017,08,22,00,49,18.40
2017,08,22,00,50,18.30
2017,08,22,00,51,18.30
2017,08,22,00,52,18.20
2017,08,22,00,53,18.20
2017,08,22,00,54,18.20
2017,08,22,00,55,18.10
2017,08,22,00,56,18.10
2017,08,22,00,57,18.00
2017,08,22,00,58,17.90
2017,08,22,00,59,17.90
2017,08,22,01,00,17.90
2017,08,22,01,01,17.90
2017,08,22,01,02,17.90
2017,08,22,01,03,17.80
2017,08,22,01,04,17.80
2017,08,22,01,05,17.80
2017,08,22,01,06,17.80
2017,08,22,01,07,17.70
2017,08,22,01,08,17.70
2017,08,22,01,09,17.70
2017,08,22,01,10,17.70
2017,08,22,01,11,17.70
2017,08,22,01,12,17.60
2017,08,22,01,13,17.60
2017,08,22,01,14,17.60
2017,08,22,01,15,17.60
2017,08,22,01,16,17.60
2017,08,22,01,17,17.50
2017,08,22,01,18,17.50
2017,08,22,01,19,17.50
2017,08,22,01,20,17.50
2017,08,22,01,21,17.40
2017,08,22,01,22,17.40
2017,08,22,01,23,17.40
2017,08,22,01,24,17.40
2017,08,22,01,25,17.40
2017,08,22,01,26,17.40
2017,08,22,01,27,17.30
2017,08,22,01,28,17.30
2017,08,22,01,29,17.30
2017,08,22,01,30,17.30
2017,08,22,01,31,17.30
2017,08,22,01,32,17.30
2017,08,22,01,33,17.30
2017,08,22,01,34,17.30
2017,08,22,01,35,17.30
2017,08,22,01,36,17.30
2017,08,22,01,37,17.20
2017,08,22,01,38,17.20
2017,08,22,01,39,17.20
2017,08,22,01,40,17.20
2017,08,22,01,41,17.20
2017,08,22,01,42,17.10
2017,08,22,01,43,17.10
2017,08,22,01,44,17.10
2017,08,22,01,45,17.10
2017,08,22,01,46,17.10
2017,08,22,01,47,17.10
2017,08,22,01,48,17.10
2017,08,22,01,49,17.10
2017,08,22,01,50,17.20
2017,08,22,01,51,17.20
2017,08,22,01,52,17.20
2017,08,22,01,53,17.20
2017,08,22,01,54,17.30
2017,08,22,01,55,17.30
2017,08,22,01,56,17.30
2017,08,22,01,57,17.30
2017,08,22,01,58,17.30
2017,08,22,01,59,17.30
2017,08,22,02,00,17.30
2017,08,22,02,01,17.30
2017,08,22,02,02,17.30
2017,08,22,02,03,17.30
2017,08,22,02,04,17.30
2017,08,22,02,05,17.30
2017,08,22,02,06,17.30
2017,08,22,02,07,17.30
2017,08,22,02,08,17.30
2017,08,22,02,09,17.30
2017,08,22,02,10,17.30
2017,08,22,02,11,17.30
2017,08,22,02,12,17.30
2017,08,22,02,13,17.30
2017,08,22,02,14,17.20
2017,08,22,02,15,17.20
2017,08,22,02,16,17.20
2017,08,22,02,17,17.10
2017,08,22,02,18,17.10
2017,08,22,02,19,17.10
2017,08,22,02,20,17.00
2017,08,22,02,21,17.00
2017,08,22,02,22,17.00
2017,08,22,02,23,17.00
2017,08,22,02,24,17.00
2017,08,22,02,25,17.00
2017,08,22,02,26,17.00
2017,08,22,02,27,17.00
2017,08,22,02,28,17.00
2017,08,22,02,29,17.00
2017,08,22,02,30,17.00
2017,08,22,02,31,17.00
2017,08,22,02,32,17.00
2017,08,22,02,33,17.00
2017,08,22,02,34,17.00
2017,08,22,02,35,17.10
2017,08,22,02,36,17.10
2017,08,22,02,37,17.10
2017,08,22,02,38,17.20
2017,08,22,02,39,17.20
2017,08,22,02,40,17.30
2017,08,22,02,41,17.30
2017,08,22,02,42,17.30
2017,08,22,02,43,17.30
2017,08,22,02,44,17.30
2017,08,22,02,45,17.30
2017,08,22,02,46,17.40
2017,08,22,02,47,17.40
2017,08,22,02,48,17.40
2017,08,22,02,49,17.40
2017,08,22,02,50,17.40
2017,08,22,02,51,17.40
2017,08,22,02,52,17.50
2017,08,22,02,53,17.50
2017,08,22,02,54,17.50
2017,08,22,02,55,17.50
2017,08,22,02,56,17.50
2017,08,22,02,57,17.50
2017,08,22,02,58,17.60
2017,08,22,02,59,17.60
2017,08,22,03,00,17.60
2017,08,22,03,01,17.60
2017,08,22,03,02,17.60
2017,08,22,03,03,17.60
2017,08,22,03,04,17.60
2017,08,22,03,05,17.60
2017,08,22,03,06,17.70
2017,08,22,03,07,17.70
2017,08,22,03,08,17.70
2017,08,22,03,09,17.70
2017,08,22,03,10,17.80
2017,08,22,03,11,17.80
2017,08,22,03,12,17.80
2017,08,22,03,13,17.80
2017,08,22,03,14,17.90
2017,08,22,03,15,17.90
2017,08,22,03,16,17.90
2017,08,22,03,17,17.90
2017,08,22,03,18,17.90
2017,08,22,03,19,17.90
2017,08,22,03,20,17.90
2017,08,22,03,21,17.90
2017,08,22,03,22,17.90
2017,08,22,03,23,17.90
2017,08,22,03,24,17.90
2017,08,22,03,25,17.80
2017,08,22,03,26,17.80
2017,08,22,03,27,17.80
2017,08,22,03,28,17.80
2017,08,22,03,29,17.80
2017,08,22,03,30,17.70
2017,08,22,03,31,17.70
2017,08,22,03,32,17.70
2017,08,22,03,33,17.60
2017,08,22,03,34,17.60
2017,08,22,03,35,17.60
2017,08,22,03,36,17.50
2017,08,22,03,37,17.50
2017,08,22,03,38,17.40
2017,08,22,03,39,17.40
2017,08,22,03,40,17.40
2017,08,22,03,41,17.30
2017,08,22,03,42,17.30
2017,08,22,03,43,17.30
2017,08,22,03,44,17.30
2017,08,22,03,45,17.20
2017,08,22,03,46,17.20
2017,08,22,03,47,17.10
2017,08,22,03,48,17.10
2017,08,22,03,49,17.10
2017,08,22,03,50,17.00
2017,08,22,03,51,17.00
2017,08,22,03,52,17.00
2017,08,22,03,53,17.00
2017,08,22,03,54,16.90
2017,08,22,03,55,16.90
2017,08,22,03,56,16.90
2017,08,22,03,57,16.90
2017,08,22,03,58,16.80
2017,08,22,03,59,16.80
2017,08,22,04,00,16.80
2017,08,22,04,01,16.80
2017,08,22,04,02,16.70
2017,08,22,04,03,16.70
2017,08,22,04,04,16.70
2017,08,22,04,05,16.70
2017,08,22,04,06,16.70
2017,08,22,04,07,16.70
2017,08,22,04,08,16.70
2017,08,22,04,09,16.70
2017,08,22,04,10,16.70
2017,08,22,04,11,16.70
2017,08,22,04,12,16.70
2017,08,22,04,13,16.70
2017,08,22,04,14,16.70
2017,08,22,04,15,16.70
2017,08,22,04,16,16.70
2017,08,22,04,17,16.70
2017,08,22,04,18,16.60
2017,08,22,04,19,16.60
2017,08,22,04,20,16.60
2017,08,22,04,21,16.60
2017,08,22,04,22,16.60
2017,08,22,04,23,16.60
2017,08,22,04,24,16.60
2017,08,22,04,25,16.50
2017,08,22,04,26,16.40
2017,08,22,04,27,16.50
2017,08,22,04,28,16.60
2017,08,22,04,29,16.60
2017,08,22,04,30,16.60
2017,08,22,04,31,16.60
2017,08,22,04,32,16.60
2017,08,22,04,33,16.60
2017,08,22,04,34,16.60
2017,08,22,04,35,16.60
2017,08,22,04,36,16.60
2017,08,22,04,37,16.60
2017,08,22,04,38,16.60
2017,08,22,04,39,16.60
2017,08,22,04,40,16.60
2017,08,22,04,41,16.60
2017,08,22,04,42,16.60
2017,08,22,04,43,16.50
2017,08,22,04,44,16.40
2017,08,22,04,45,16.40
2017,08,22,04,46,16.40
2017,08,22,04,47,16.40
2017,08,22,04,48,16.40
2017,08,22,04,49,16.40
2017,08,22,04,50,16.40
2017,08,22,04,51,16.40
2017,08,22,04,52,16.40
2017,08,22,04,53,16.40
2017,08,22,04,54,16.40
2017,08,22,04,55,16.30
2017,08,22,04,56,16.30
2017,08,22,04,57,16.30
2017,08,22,04,58,16.30
2017,08,22,04,59,16.20
2017,08,22,05,00,16.20
2017,08,22,05,01,16.20
2017,08,22,05,02,16.10
2017,08,22,05,03,16.10
2017,08,22,05,04,16.10
2017,08,22,05,05,16.20
2017,08,22,05,06,16.20
2017,08,22,05,07,16.20
2017,08,22,05,08,16.30
2017,08,22,05,09,16.30
2017,08,22,05,10,16.30
2017,08,22,05,11,16.30
2017,08,22,05,12,16.30
2017,08,22,05,13,16.30
2017,08,22,05,14,16.30
2017,08,22,05,15,16.30
2017,08,22,05,16,16.30
2017,08,22,05,17,16.30
2017,08,22,05,18,16.30
2017,08,22,05,19,16.20
2017,08,22,05,20,16.20
2017,08,22,05,21,16.20
2017,08,22,05,22,16.10
2017,08,22,05,23,16.10
2017,08,22,05,24,16.10
2017,08,22,05,25,16.10
2017,08,22,05,26,16.10
2017,08,22,05,27,16.10
2017,08,22,05,28,16.10
2017,08,22,05,29,16.10
2017,08,22,05,30,16.00
2017,08,22,05,31,15.90
2017,08,22,05,32,15.90
2017,08,22,05,33,15.90
2017,08,22,05,34,15.90
2017,08,22,05,35,15.90
2017,08,22,05,36,15.90
2017,08,22,05,37,15.90
2017,08,22,05,38,16.10
2017,08,22,05,39,16.10
2017,08,22,05,40,16.10
2017,08,22,05,41,16.10
2017,08,22,05,42,16.10
2017,08,22,05,43,16.10
2017,08,22,05,44,16.10
2017,08,22,05,45,16.00
2017,08,22,05,46,15.90
2017,08,22,05,47,16.00
2017,08,22,05,48,16.10
2017,08,22,05,49,16.10
2017,08,22,05,50,16.10
2017,08,22,05,51,16.10
2017,08,22,05,52,16.10
2017,08,22,05,53,16.10
2017,08,22,05,54,16.10
2017,08,22,05,55,16.10
2017,08,22,05,56,16.10
2017,08,22,05,57,16.10
2017,08,22,05,58,16.10
2017,08,22,05,59,16.10
2017,08,22,06,00,16.10
2017,08,22,06,01,16.10
2017,08,22,06,02,16.10
2017,08,22,06,03,16.10
2017,08,22,06,04,16.10
2017,08,22,06,05,16.10
2017,08,22,06,06,16.10
2017,08,22,06,07,16.10
2017,08,22,06,08,16.10
2017,08,22,06,09,16.00
2017,08,22,06,10,15.90
2017,08,22,06,11,15.90
2017,08,22,06,12,15.90
2017,08,22,06,13,15.90
2017,08,22,06,14,15.90
2017,08,22,06,15,15.80
2017,08,22,06,16,15.80
2017,08,22,06,17,15.80
2017,08,22,06,18,15.80
2017,08,22,06,19,15.80
2017,08,22,06,20,15.80
2017,08,22,06,21,15.70
2017,08,22,06,22,15.70
2017,08,22,06,23,15.70
2017,08,22,06,24,15.70
2017,08,22,06,25,15.60
2017,08,22,06,26,15.60
2017,08,22,06,27,15.60
2017,08,22,06,28,15.60
2017,08,22,06,29,15.50
2017,08,22,06,30,15.50
2017,08,22,06,31,15.50
2017,08,22,06,32,15.50
2017,08,22,06,33,15.50
2017,08,22,06,34,15.50
2017,08,22,06,35,15.50
2017,08,22,06,36,15.50
2017,08,22,06,37,15.50
2017,08,22,06,38,15.50
2017,08,22,06,39,15.50
2017,08,22,06,40,15.50
2017,08,22,06,41,15.50
2017,08,22,06,42,15.60
2017,08,22,06,43,15.60
2017,08,22,06,44,15.60
2017,08,22,06,45,15.60
2017,08,22,06,46,15.70
2017,08,22,06,47,15.70
2017,08,22,06,48,15.80
2017,08,22,06,49,15.80
2017,08,22,06,50,15.80
2017,08,22,06,51,15.80
2017,08,22,06,52,15.90
2017,08,22,06,53,15.90
2017,08,22,06,54,15.90
2017,08,22,06,55,15.90
2017,08,22,06,56,16.00
2017,08,22,06,57,16.10
2017,08,22,06,58,16.10
2017,08,22,06,59,16.10
2017,08,22,07,00,16.10
2017,08,22,07,01,16.10
2017,08,22,07,02,16.10
2017,08,22,07,03,16.10
2017,08,22,07,04,16.10
2017,08,22,07,05,16.10
2017,08,22,07,06,16.20
2017,08,22,07,07,16.20
2017,08,22,07,08,16.20
2017,08,22,07,09,16.20
2017,08,22,07,10,16.30
2017,08,22,07,11,16.30
2017,08,22,07,12,16.30
2017,08,22,07,13,16.40
2017,08,22,07,14,16.40
2017,08,22,07,15,16.40
2017,08,22,07,16,16.40
2017,08,22,07,17,16.40
2017,08,22,07,18,16.40
2017,08,22,07,19,16.50
2017,08,22,07,20,16.60
2017,08,22,07,21,16.60
2017,08,22,07,22,16.70
2017,08,22,07,23,16.70
2017,08,22,07,24,16.70
2017,08,22,07,25,16.70
2017,08,22,07,26,16.70
2017,08,22,07,27,16.70
2017,08,22,07,28,16.80
2017,08,22,07,29,16.80
2017,08,22,07,30,16.90
2017,08,22,07,31,16.90
2017,08,22,07,32,17.00
2017,08,22,07,33,17.10
2017,08,22,07,34,17.20
2017,08,22,07,35,17.20
2017,08,22,07,36,17.30
2017,08,22,07,37,17.30
2017,08,22,07,38,17.40
2017,08,22,07,39,17.50
2017,08,22,07,40,17.60
2017,08,22,07,41,17.70
2017,08,22,07,42,17.70
2017,08,22,07,43,17.90
2017,08,22,07,44,17.90
2017,08,22,07,45,18.10
2017,08,22,07,46,18.20
2017,08,22,07,47,18.30
2017,08,22,07,48,18.50
2017,08,22,07,49,18.60
2017,08,22,07,50,18.70
2017,08,22,07,51,18.80
2017,08,22,07,52,18.90
2017,08,22,07,53,18.90
2017,08,22,07,54,19.00
2017,08,22,07,55,19.10
2017,08,22,07,56,19.20
2017,08,22,07,57,19.30
2017,08,22,07,58,19.40
2017,08,22,07,59,19.50
2017,08,22,08,00,19.60
2017,08,22,08,01,19.70
2017,08,22,08,02,19.80
2017,08,22,08,03,19.90
2017,08,22,08,04,19.90
2017,08,22,08,05,19.90
2017,08,22,08,06,19.90
2017,08,22,08,07,19.90
2017,08,22,08,08,19.90
2017,08,22,08,09,19.90
2017,08,22,08,10,19.90
2017,08,22,08,11,19.90
2017,08,22,08,12,19.90
2017,08,22,08,13,19.90
2017,08,22,08,14,19.90
2017,08,22,08,15,19.90
2017,08,22,08,16,19.90
2017,08,22,08,17,19.90
2017,08,22,08,18,19.90
2017,08,22,08,19,19.90
2017,08,22,08,20,19.90
2017,08,22,08,21,19.90
2017,08,22,08,22,20.00
2017,08,22,08,23,20.10
2017,08,22,08,24,20.10
2017,08,22,08,25,20.20
2017,08,22,08,26,20.20
2017,08,22,08,27,20.20
2017,08,22,08,28,20.20
2017,08,22,08,29,20.30
2017,08,22,08,30,20.30
2017,08,22,08,31,20.40
2017,08,22,08,32,20.40
2017,08,22,08,33,20.50
2017,08,22,08,34,20.50
2017,08,22,08,35,20.60
2017,08,22,08,36,20.60
2017,08,22,08,37,20.60
2017,08,22,08,38,20.70
2017,08,22,08,39,20.70
2017,08,22,08,40,20.80
2017,08,22,08,41,20.80
2017,08,22,08,42,20.90
2017,08,22,08,43,21.00
2017,08,22,08,44,21.00
2017,08,22,08,45,21.10
2017,08,22,08,46,21.20
2017,08,22,08,47,21.30
2017,08,22,08,48,21.30
2017,08,22,08,49,21.40
2017,08,22,08,50,21.60
2017,08,22,08,51,21.60
2017,08,22,08,52,21.70
2017,08,22,08,53,21.80
2017,08,22,08,54,21.80
2017,08,22,08,55,21.90
2017,08,22,08,56,21.90
2017,08,22,08,57,22.00
2017,08,22,08,58,22.00
2017,08,22,08,59,22.00
2017,08,22,09,00,22.00
2017,08,22,09,01,22.00
2017,08,22,09,02,22.10
2017,08,22,09,03,22.10
2017,08,22,09,04,22.10
2017,08,22,09,05,22.10
2017,08,22,09,06,22.20
2017,08,22,09,07,22.20
2017,08,22,09,08,22.30
2017,08,22,09,09,22.30
2017,08,22,09,10,22.40
2017,08,22,09,11,22.50
2017,08,22,09,12,22.50
2017,08,22,09,13,22.60
2017,08,22,09,14,22.60
2017,08,22,09,15,22.70
2017,08,22,09,16,22.80
2017,08,22,09,17,22.80
2017,08,22,09,18,22.80
2017,08,22,09,19,22.80
2017,08,22,09,20,22.70
2017,08,22,09,21,22.60
2017,08,22,09,22,22.60
2017,08,22,09,23,22.60
2017,08,22,09,24,22.60
2017,08,22,09,25,22.60
2017,08,22,09,26,22.70
2017,08,22,09,27,22.70
2017,08,22,09,28,22.70
2017,08,22,09,29,22.70
2017,08,22,09,30,22.70
2017,08,22,09,31,22.70
2017,08,22,09,32,22.80
2017,08,22,09,33,22.80
2017,08,22,09,34,22.80
2017,08,22,09,35,22.90
2017,08,22,09,36,22.90
2017,08,22,09,37,23.00
2017,08,22,09,38,23.10
2017,08,22,09,39,23.20
2017,08,22,09,40,23.30
2017,08,22,09,41,23.30
2017,08,22,09,42,23.30
2017,08,22,09,43,23.20
2017,08,22,09,44,23.10
2017,08,22,09,45,23.00
2017,08,22,09,46,22.90
2017,08,22,09,47,22.90
2017,08,22,09,48,22.90
2017,08,22,09,49,22.90
2017,08,22,09,50,22.90
2017,08,22,09,51,22.90
2017,08,22,09,52,22.90
2017,08,22,09,53,23.00
2017,08,22,09,54,23.00
2017,08,22,09,55,22.90
2017,08,22,09,56,22.90
2017,08,22,09,57,22.80
2017,08,22,09,58,22.60
2017,08,22,09,59,22.40
2017,08,22,10,00,22.10
2017,08,22,10,01,22.00
2017,08,22,10,02,21.90
2017,08,22,10,03,21.80
2017,08,22,10,04,21.80
2017,08,22,10,05,21.80
2017,08,22,10,06,21.70
2017,08,22,10,07,21.70
2017,08,22,10,08,21.70
2017,08,22,10,09,21.60
2017,08,22,10,10,21.60
2017,08,22,10,11,21.60
2017,08,22,10,12,21.60
2017,08,22,10,13,21.60
2017,08,22,10,14,21.60
2017,08,22,10,15,21.60
2017,08,22,10,16,21.60
2017,08,22,10,17,21.60
2017,08,22,10,18,21.60
2017,08,22,10,19,21.70
2017,08,22,10,20,21.70
2017,08,22,10,21,21.80
2017,08,22,10,22,21.80
2017,08,22,10,23,21.80
2017,08,22,10,24,21.90
2017,08,22,10,25,21.90
2017,08,22,10,26,21.90
2017,08,22,10,27,21.90
2017,08,22,10,28,21.90
2017,08,22,10,29,21.90
2017,08,22,10,30,21.80
2017,08,22,10,31,21.80
2017,08,22,10,32,21.80
2017,08,22,10,33,21.90
2017,08,22,10,34,22.00
2017,08,22,10,35,22.00
2017,08,22,10,36,22.10
2017,08,22,10,37,22.20
2017,08,22,10,38,22.30
2017,08,22,10,39,22.40
2017,08,22,10,40,22.50
2017,08,22,10,41,22.60
2017,08,22,10,42,22.80
2017,08,22,10,43,22.80
2017,08,22,10,44,22.90
2017,08,22,10,45,22.90
2017,08,22,10,46,22.80
2017,08,22,10,47,22.80
2017,08,22,10,48,22.80
2017,08,22,10,49,22.70
2017,08,22,10,50,22.60
2017,08,22,10,51,22.60
2017,08,22,10,52,22.60
2017,08,22,10,53,22.60
2017,08,22,10,54,22.60
2017,08,22,10,55,22.50
2017,08,22,10,56,22.60
2017,08,22,10,57,22.60
2017,08,22,10,58,22.60
2017,08,22,10,59,22.70
2017,08,22,11,00,22.70
2017,08,22,11,01,22.80
2017,08,22,11,02,22.80
2017,08,22,11,03,22.80
2017,08,22,11,04,22.80
2017,08,22,11,05,22.80
2017,08,22,11,06,22.80
2017,08,22,11,07,22.80
2017,08,22,11,08,22.90
2017,08,22,11,09,22.90
2017,08,22,11,10,22.90
2017,08,22,11,11,22.90
2017,08,22,11,12,22.80
2017,08,22,11,13,22.70
2017,08,22,11,14,22.70
2017,08,22,11,15,22.60
2017,08,22,11,16,22.60
2017,08,22,11,17,22.70
2017,08,22,11,18,22.80
2017,08,22,11,19,22.90
2017,08,22,11,20,23.10
2017,08,22,11,21,23.30
2017,08,22,11,22,23.40
2017,08,22,11,23,23.50
2017,08,22,11,24,23.60
2017,08,22,11,25,23.70
2017,08,22,11,26,23.70
2017,08,22,11,27,23.90
2017,08,22,11,28,23.90
2017,08,22,11,29,24.00
2017,08,22,11,30,24.10
2017,08,22,11,31,24.10
2017,08,22,11,32,24.20
2017,08,22,11,33,24.30
2017,08,22,11,34,24.30
2017,08,22,11,35,24.20
2017,08,22,11,36,24.20
2017,08,22,11,37,24.10
2017,08,22,11,38,24.10
2017,08,22,11,39,24.20
2017,08,22,11,40,24.20
2017,08,22,11,41,24.10
2017,08,22,11,42,24.20
2017,08,22,11,43,24.40
2017,08,22,11,44,24.50
2017,08,22,11,45,24.60
2017,08,22,11,46,24.70
2017,08,22,11,47,24.60
2017,08,22,11,48,24.60
2017,08,22,11,49,24.50
2017,08,22,11,50,24.40
2017,08,22,11,51,24.50
2017,08,22,11,52,24.50
2017,08,22,11,53,24.50
2017,08,22,11,54,24.50
2017,08,22,11,55,24.50
2017,08,22,11,56,24.60
2017,08,22,11,57,24.50
2017,08,22,11,58,24.50
2017,08,22,11,59,24.40
2017,08,22,12,00,24.40
2017,08,22,12,01,24.30
2017,08,22,12,02,24.10
2017,08,22,12,03,24.10
2017,08,22,12,04,24.10
2017,08,22,12,05,24.00
2017,08,22,12,06,23.90
2017,08,22,12,07,23.70
2017,08,22,12,08,23.60
2017,08,22,12,09,23.60
2017,08,22,12,10,23.60
2017,08,22,12,11,23.70
2017,08,22,12,12,23.90
2017,08,22,12,13,23.90
2017,08,22,12,14,23.90
2017,08,22,12,15,23.90
2017,08,22,12,16,24.00
2017,08,22,12,17,24.10
2017,08,22,12,18,24.10
2017,08,22,12,19,24.20
2017,08,22,12,20,24.30
2017,08,22,12,21,24.50
2017,08,22,12,22,24.50
2017,08,22,12,23,24.40
2017,08,22,12,24,24.30
2017,08,22,12,25,24.40
2017,08,22,12,26,24.50
2017,08,22,12,27,24.60
2017,08,22,12,28,24.70
2017,08,22,12,29,24.80
2017,08,22,12,30,24.90
2017,08,22,12,31,24.90
2017,08,22,12,32,24.90
2017,08,22,12,33,24.90
2017,08,22,12,34,24.80
2017,08,22,12,35,24.70
2017,08,22,12,36,24.70
2017,08,22,12,37,24.70
2017,08,22,12,38,24.70
2017,08,22,12,39,24.70
2017,08,22,12,40,24.50
2017,08,22,12,41,24.40
2017,08,22,12,42,24.30
2017,08,22,12,43,24.20
2017,08,22,12,44,24.20
2017,08,22,12,45,24.30
2017,08,22,12,46,24.40
2017,08,22,12,47,24.40
2017,08,22,12,48,24.40
2017,08,22,12,49,24.50
2017,08,22,12,50,24.50
2017,08,22,12,51,24.60
2017,08,22,12,52,24.70
2017,08,22,12,53,24.80
2017,08,22,12,54,24.90
2017,08,22,12,55,25.00
2017,08,22,12,56,25.00
2017,08,22,12,57,24.90
2017,08,22,12,58,24.80
2017,08,22,12,59,24.80
2017,08,22,13,00,24.80
2017,08,22,13,01,24.90
2017,08,22,13,02,24.90
2017,08,22,13,03,24.90
2017,08,22,13,04,24.80
2017,08,22,13,05,24.80
2017,08,22,13,06,24.90
2017,08,22,13,07,24.90
2017,08,22,13,08,24.90
2017,08,22,13,09,25.00
2017,08,22,13,10,25.00
2017,08,22,13,11,25.00
2017,08,22,13,12,25.00
2017,08,22,13,13,25.00
2017,08,22,13,14,25.10
2017,08,22,13,15,25.20
2017,08,22,13,16,25.20
2017,08,22,13,17,25.20
2017,08,22,13,18,25.30
2017,08,22,13,19,25.30
2017,08,22,13,20,25.40
2017,08,22,13,21,25.40
2017,08,22,13,22,25.30
2017,08,22,13,23,25.30
2017,08,22,13,24,25.30
2017,08,22,13,25,25.20
2017,08,22,13,26,25.10
2017,08,22,13,27,25.10
2017,08,22,13,28,24.90
2017,08,22,13,29,24.80
2017,08,22,13,30,24.70
2017,08,22,13,31,24.80
2017,08,22,13,32,25.00
2017,08,22,13,33,25.00
2017,08,22,13,34,25.10
2017,08,22,13,35,25.10
2017,08,22,13,36,25.10
2017,08,22,13,37,25.20
2017,08,22,13,38,25.20
2017,08,22,13,39,25.40
2017,08,22,13,40,25.50
2017,08,22,13,41,25.70
2017,08,22,13,42,25.80
2017,08,22,13,43,25.80
2017,08,22,13,44,25.90
2017,08,22,13,45,25.80
2017,08,22,13,46,25.70
2017,08,22,13,47,25.70
2017,08,22,13,48,25.60
2017,08,22,13,49,25.60
2017,08,22,13,50,25.60
2017,08,22,13,51,25.50
2017,08,22,13,52,25.50
2017,08,22,13,53,25.50
2017,08,22,13,54,25.60
2017,08,22,13,55,25.60
2017,08,22,13,56,25.50
2017,08,22,13,57,25.50
2017,08,22,13,58,25.50
2017,08,22,13,59,25.50
2017,08,22,14,00,25.50
2017,08,22,14,01,25.50
2017,08,22,14,02,25.60
2017,08,22,14,03,25.60
2017,08,22,14,04,25.60
2017,08,22,14,05,25.70
2017,08,22,14,06,25.70
2017,08,22,14,07,25.70
2017,08,22,14,08,25.80
2017,08,22,14,09,25.70
2017,08,22,14,10,25.70
2017,08,22,14,11,25.70
2017,08,22,14,12,25.90
2017,08,22,14,13,26.00
2017,08,22,14,14,26.20
2017,08,22,14,15,26.30
2017,08,22,14,16,26.40
2017,08,22,14,17,26.50
2017,08,22,14,18,26.60
2017,08,22,14,19,26.60
2017,08,22,14,20,26.70
2017,08,22,14,21,26.80
2017,08,22,14,22,26.90
2017,08,22,14,23,26.90
2017,08,22,14,24,27.00
2017,08,22,14,25,27.00
2017,08,22,14,26,26.90
2017,08,22,14,27,26.70
2017,08,22,14,28,26.70
2017,08,22,14,29,26.60
2017,08,22,14,30,26.60
2017,08,22,14,31,26.60
2017,08,22,14,32,26.70
2017,08,22,14,33,26.70
2017,08,22,14,34,26.70
2017,08,22,14,35,26.60
2017,08,22,14,36,26.50
2017,08,22,14,37,26.40
2017,08,22,14,38,26.40
2017,08,22,14,39,26.50
2017,08,22,14,40,26.50
2017,08,22,14,41,26.40
2017,08,22,14,42,26.40
2017,08,22,14,43,26.40
2017,08,22,14,44,26.50
2017,08,22,14,45,26.60
2017,08,22,14,46,26.60
2017,08,22,14,47,26.60
2017,08,22,14,48,26.70
2017,08,22,14,49,26.70
2017,08,22,14,50,26.70
2017,08,22,14,51,26.70
2017,08,22,14,52,26.60
2017,08,22,14,53,26.60
2017,08,22,14,54,26.60
2017,08,22,14,55,26.60
2017,08,22,14,56,26.60
2017,08,22,14,57,26.50
2017,08,22,14,58,26.40
2017,08,22,14,59,26.30
2017,08,22,15,00,26.20
2017,08,22,15,01,26.10
2017,08,22,15,02,25.90
2017,08,22,15,03,25.90
2017,08,22,15,04,25.80
2017,08,22,15,05,25.70
2017,08,22,15,06,25.50
2017,08,22,15,07,25.40
2017,08,22,15,08,25.30
2017,08,22,15,09,25.30
2017,08,22,15,10,25.20
2017,08,22,15,11,25.00
2017,08,22,15,12,25.00
2017,08,22,15,13,25.00
2017,08,22,15,14,25.00
2017,08,22,15,15,25.00
2017,08,22,15,16,25.00
2017,08,22,15,17,25.00
2017,08,22,15,18,25.00
2017,08,22,15,19,24.90
2017,08,22,15,20,24.80
2017,08,22,15,21,24.80
2017,08,22,15,22,24.80
2017,08,22,15,23,24.70
2017,08,22,15,24,24.70
2017,08,22,15,25,24.70
2017,08,22,15,26,24.80
2017,08,22,15,27,24.70
2017,08,22,15,28,24.70
2017,08,22,15,29,24.70
2017,08,22,15,30,24.70
2017,08,22,15,31,24.60
2017,08,22,15,32,24.50
2017,08,22,15,33,24.50
2017,08,22,15,34,24.50
2017,08,22,15,35,24.50
2017,08,22,15,36,24.50
2017,08,22,15,37,24.50
2017,08,22,15,38,24.50
2017,08,22,15,39,24.50
2017,08,22,15,40,24.50
2017,08,22,15,41,24.60
2017,08,22,15,42,24.60
2017,08,22,15,43,24.60
2017,08,22,15,44,24.60
2017,08,22,15,45,24.60
2017,08,22,15,46,24.60
2017,08,22,15,47,24.60
2017,08,22,15,48,24.70
2017,08,22,15,49,24.70
2017,08,22,15,50,24.80
2017,08,22,15,51,24.90
2017,08,22,15,52,24.90
2017,08,22,15,53,24.90
2017,08,22,15,54,24.90
2017,08,22,15,55,25.00
2017,08,22,15,56,25.00
2017,08,22,15,57,25.00
2017,08,22,15,58,25.00
2017,08,22,15,59,25.10
2017,08,22,16,00,25.10
2017,08,22,16,01,25.20
2017,08,22,16,02,25.20
2017,08,22,16,03,25.20
2017,08,22,16,04,25.30
2017,08,22,16,05,25.30
2017,08,22,16,06,25.40
2017,08,22,16,07,25.40
2017,08,22,16,08,25.40
2017,08,22,16,09,25.40
2017,08,22,16,10,25.40
2017,08,22,16,11,25.20
2017,08,22,16,12,25.20
2017,08,22,16,13,25.10
2017,08,22,16,14,25.00
2017,08,22,16,15,24.90
2017,08,22,16,16,24.90
2017,08,22,16,17,24.90
2017,08,22,16,18,24.90
2017,08,22,16,19,24.90
2017,08,22,16,20,25.00
2017,08,22,16,21,25.00
2017,08,22,16,22,25.10
2017,08,22,16,23,25.10
2017,08,22,16,24,25.10
2017,08,22,16,25,25.10
2017,08,22,16,26,25.10
2017,08,22,16,27,25.10
2017,08,22,16,28,25.10
2017,08,22,16,29,25.20
2017,08,22,16,30,25.30
2017,08,22,16,31,25.30
2017,08,22,16,32,25.40
2017,08,22,16,33,25.40
2017,08,22,16,34,25.40
2017,08,22,16,35,25.40
2017,08,22,16,36,25.40
2017,08,22,16,37,25.40
2017,08,22,16,38,25.40
2017,08,22,16,39,25.40
2017,08,22,16,40,25.40
2017,08,22,16,41,25.40
2017,08,22,16,42,25.40
2017,08,22,16,43,25.50
2017,08,22,16,44,25.50
2017,08,22,16,45,25.60
2017,08,22,16,46,25.70
2017,08,22,16,47,25.80
2017,08,22,16,48,25.90
2017,08,22,16,49,25.90
2017,08,22,16,50,26.00
2017,08,22,16,51,26.00
2017,08,22,16,52,26.10
2017,08,22,16,53,26.00
2017,08,22,16,54,26.00
2017,08,22,16,55,25.90
2017,08,22,16,56,25.90
2017,08,22,16,57,25.90
2017,08,22,16,58,25.90
2017,08,22,16,59,25.80
2017,08,22,17,00,25.80
2017,08,22,17,01,25.70
2017,08,22,17,02,25.60
2017,08,22,17,03,25.60
2017,08,22,17,04,25.50
2017,08,22,17,05,25.50
2017,08,22,17,06,25.40
2017,08,22,17,07,25.30
2017,08,22,17,08,25.30
2017,08,22,17,09,25.30
2017,08,22,17,10,25.30
2017,08,22,17,11,25.30
2017,08,22,17,12,25.40
2017,08,22,17,13,25.40
2017,08,22,17,14,25.40
2017,08,22,17,15,25.40
2017,08,22,17,16,25.40
2017,08,22,17,17,25.40
2017,08,22,17,18,25.50
2017,08,22,17,19,25.50